Tillbaka till svenska Fidonet
English   Information   Debug  
FILM   0/18
FNEWS_PUBLISH   4983
FN_SYSOP   42232
FN_SYSOP_OLD1   71952
FTP_FIDO   0/2
FTSC_PUBLIC   0/13976
FUNNY   0/4886
GENEALOGY.EUR   0/71
GET_INFO   105
GOLDED   0/408
HAM   0/16714
HOLYSMOKE   0/6791
HOT_SITES   0/1
HTMLEDIT   0/71
HUB203   466
HUB_100   264
HUB_400   39
HUMOR   0/29
IC   0/2851
INTERNET   0/424
INTERUSER   0/3
IP_CONNECT   719
JAMNNTPD   0/233
JAMTLAND   0/47
KATTY_KORNER   0/41
LAN   0/16
LINUX-USER   0/19
LINUXHELP   0/1155
LINUX   0/22386
LINUX_BBS   0/957
mail   18.68
mail_fore_ok   249
MENSA   0/341
MODERATOR   0/102
MONTE   0/992
MOSCOW_OKLAHOMA   0/1245
MUFFIN   0/783
MUSIC   0/321
N203_STAT   938
N203_SYSCHAT   313
NET203   321
NET204   69
NET_DEV   0/10
NORD.ADMIN   0/101
NORD.CHAT   0/2572
NORD.FIDONET   189
NORD.HARDWARE   0/28
NORD.KULTUR   0/114
NORD.PROG   0/32
NORD.SOFTWARE   0/88
NORD.TEKNIK   0/58
NORD   0/453
OCCULT_CHAT   0/93
OS2BBS   0/787
OS2DOSBBS   0/580
OS2HW   0/42
OS2INET   0/37
OS2LAN   0/134
OS2PROG   0/36
OS2REXX   0/113
OS2USER-L   207
OS2   0/4831
OSDEBATE   0/18996
PASCAL   0/490
PERL   0/457
PHP   0/45
POINTS   0/405
POLITICS   0/29554
POL_INC   0/14731
PSION   103
R20_ADMIN   1133
R20_AMATORRADIO   0/2
R20_BEST_OF_FIDONET   16
R20_CHAT   0/897
R20_DEPP   0/3
R20_DEV   400
R20_ECHO2   1889
R20_ECHOPRES   0/35
R20_ESTAT   0/719
R20_FIDONETPROG...
...RAM.MYPOINT
  0/2
R20_FIDONETPROGRAM   0/22
R20_FIDONET   0/248
R20_FILEFIND   0/24
R20_FILEFOUND   0/22
R20_HIFI   0/3
R20_INFO2   3782
R20_INTERNET   0/12940
R20_INTRESSE   0/60
R20_INTR_KOM   0/99
R20_KANDIDAT.CHAT   42
R20_KANDIDAT   28
R20_KOM_DEV   112
R20_KONTROLL   0/13360
R20_KORSET   0/18
R20_LOKALTRAFIK   0/24
R20_MODERATOR   0/1852
R20_NC   76
R20_NET200   245
R20_NETWORK.OTH...
...ERNETS
  0/13
R20_OPERATIVSYS...
...TEM.LINUX
  0/44
R20_PROGRAMVAROR   0/1
R20_REC2NEC   534
R20_SFOSM   0/341
R20_SF   0/108
R20_SPRAK.ENGLISH   0/1
R20_SQUISH   107
R20_TEST   2
R20_WORST_OF_FIDONET   20
RAR   0/9
RA_MULTI   106
RA_UTIL   0/162
REGCON.EUR   0/2069
REGCON   0/13
SCIENCE   0/1206
SF   0/239
SHAREWARE_SUPPORT   0/5146
SHAREWRE   0/14
SIMPSONS   0/169
STATS_OLD1   0/2539.065
STATS_OLD2   0/2530
STATS_OLD3   0/2395.095
STATS_OLD4   0/1692.25
SURVIVOR   0/495
SYSOPS_CORNER   0/3
SYSOP   0/84
TAGLINES   0/112
TEAMOS2   0/4530
TECH   0/2617
TEST.444   0/105
TRAPDOOR   0/19
TREK   0/755
TUB   0/290
UFO   0/40
UNIX   0/1316
USA_EURLINK   0/102
USR_MODEMS   0/1
VATICAN   0/2740
VIETNAM_VETS   0/14
VIRUS   0/378
VIRUS_INFO   0/201
VISUAL_BASIC   0/473
WHITEHOUSE   0/5187
WIN2000   0/101
WIN32   0/30
WIN95   0/4291
WIN95_OLD1   0/70272
WINDOWS   0/1517
WWB_SYSOP   0/419
WWB_TECH   0/810
ZCC-PUBLIC   0/1
ZEC   4

 
4DOS   0/134
ABORTION   0/7
ALASKA_CHAT   0/506
ALLFIX_FILE   0/1313
ALLFIX_FILE_OLD1   0/7997
ALT_DOS   0/152
AMATEUR_RADIO   0/1039
AMIGASALE   0/14
AMIGA   0/331
AMIGA_INT   0/1
AMIGA_PROG   0/20
AMIGA_SYSOP   0/26
ANIME   0/15
ARGUS   0/924
ASCII_ART   0/340
ASIAN_LINK   0/651
ASTRONOMY   0/417
AUDIO   0/92
AUTOMOBILE_RACING   0/105
BABYLON5   0/17862
BAG   135
BATPOWER   0/361
BBBS.ENGLISH   0/382
BBSLAW   0/109
BBS_ADS   0/5290
BBS_INTERNET   0/507
BIBLE   0/3563
BINKD   0/1119
BINKLEY   0/215
BLUEWAVE   0/2173
CABLE_MODEMS   0/25
CBM   0/46
CDRECORD   0/66
CDROM   0/20
CLASSIC_COMPUTER   0/378
COMICS   0/15
CONSPRCY   0/899
COOKING   42003
COOKING_OLD1   0/24719
COOKING_OLD2   0/40862
COOKING_OLD3   0/37489
COOKING_OLD4   0/35496
COOKING_OLD5   9370
C_ECHO   0/189
C_PLUSPLUS   0/31
DIRTY_DOZEN   0/201
DOORGAMES   0/2333
DOS_INTERNET   0/196
duplikat   6102
ECHOLIST   0/18295
EC_SUPPORT   0/318
ELECTRONICS   0/359
ELEKTRONIK.GER   1534
ENET.LINGUISTIC   0/13
ENET.POLITICS   0/4
ENET.SOFT   0/11701
ENET.SYSOP   34332
ENET.TALKS   0/32
ENGLISH_TUTOR   0/2000
EVOLUTION   0/1335
FDECHO   0/217
FDN_ANNOUNCE   0/7068
FIDONEWS   25122
FIDONEWS_OLD1   0/49742
FIDONEWS_OLD2   0/35949
FIDONEWS_OLD3   0/30874
FIDONEWS_OLD4   0/37224
FIDO_SYSOP   12973
FIDO_UTIL   0/180
FILEFIND   0/209
FILEGATE   0/212
Möte HAM, 16714 texter
 lista första sista föregående nästa
Text 3497, 894 rader
Skriven 2010-02-11 21:00:18 av Amsat List (1:323/120.0)
Ärende: [keps]  orb10042.amsa
=============================
[keps]  orb10042.amsa

Return-Path: <keps-bounces@amsat.org>
X-Rcpt: craig.healy@chowda.com
X-UIDL: 1265939786.12375

SB KEPS @ AMSAT  $ORB10042.O
Orbital Elements  10042.OSCAR

HR AMSAT ORBITAL ELEMENTS FOR OSCAR SATELLITES
FROM WA5QGD FORT WORTH,TX February 11, 2010
Send Subscribe/unsubscribe to KEPS at http://www.amsat.org/mailman/listinfo/kep
BID: ORB10042.O
TO ALL RADIO AMATEURS BT

Satellite: AO-07
Catalog number: 07530
Epoch time:      10042.66741957
Element set:     702
Inclination:      101.4105 deg
RA of node:       063.3713 deg
Eccentricity:    0.0012073
Arg of perigee:   159.8231 deg
Mean anomaly:     200.3315 deg
Mean motion:   12.53577593 rev/day
Decay rate:       -2.7e-07 rev/day^2
Epoch rev:           61272
Checksum:              260

Satellite: FO-29
Catalog number: 24278
Epoch time:      10041.57337580
Element set:    0247
Inclination:      098.5210 deg
RA of node:       248.1585 deg
Eccentricity:    0.0351334
Arg of perigee:   092.2809 deg
Mean anomaly:     271.8595 deg
Mean motion:   13.52947056 rev/day
Decay rate:       -5.2e-07 rev/day^2
Epoch rev:           66598
Checksum:              330

Satellite: SO-33
Catalog number: 25509
Epoch time:      10042.65828237
Element set:     647
Inclination:      031.4343 deg
RA of node:       138.3676 deg
Eccentricity:    0.0354519
Arg of perigee:   272.2943 deg
Mean anomaly:     083.7158 deg
Mean motion:   14.28286317 rev/day
Decay rate:       1.32e-06 rev/day^2
Epoch rev:           59009
Checksum:              313

Satellite: RS-22
Catalog number: 27939
Epoch time:      10042.65607109
Element set:       7
Inclination:      097.9119 deg
RA of node:       273.3304 deg
Eccentricity:    0.0014618
Arg of perigee:   094.7903 deg
Mean anomaly:     265.4970 deg
Mean motion:   14.63379705 rev/day
Decay rate:        6.6e-07 rev/day^2
Epoch rev:           34059
Checksum:              314

Satellite: VO-52
Catalog number: 28650
Epoch time:      10042.66174973
Element set:     432
Inclination:      097.7108 deg
RA of node:       100.8936 deg
Eccentricity:    0.0026464
Arg of perigee:   329.4703 deg
Mean anomaly:     030.5006 deg
Mean motion:   14.81680790 rev/day
Decay rate:       4.68e-06 rev/day^2
Epoch rev:           25810
Checksum:              298

Satellite: SO-67
Catalog number: 35870
Epoch time:      10042.80204198
Element set:     437
Inclination:      097.3511 deg
RA of node:       094.9531 deg
Eccentricity:    0.0012381
Arg of perigee:   131.7171 deg
Mean anomaly:     332.6406 deg
Mean motion:   15.22870573 rev/day
Decay rate:       6.78e-06 rev/day^2
Epoch rev:            2238
Checksum:              292

Satellite: HO-68
Catalog number: 36122
Epoch time:      10042.15061264
Element set:     130
Inclination:      100.4878 deg
RA of node:       103.7771 deg
Eccentricity:    0.0007195
Arg of perigee:   263.1659 deg
Mean anomaly:     096.8630 deg
Mean motion:   13.16279746 rev/day
Decay rate:       -4.5e-07 rev/day^2
Epoch rev:             763
Checksum:              287

/EX
SB KEPS @ AMSAT  $ORB10042.D
Orbital Elements  10042.MICROS

HR AMSAT ORBITAL ELEMENTS FOR THE MICROSATS
FROM WA5QGD FORT WORTH,TX February 11, 2010
Send Subscribe/unsubscribe to KEPS at http://www.amsat.org/mailman/listinfo/kep
BID: ORB10042.D
TO ALL RADIO AMATEURS BT

Satellite: UO-11
Catalog number: 14781
Epoch time:      10042.72582329
Element set:     173
Inclination:      098.0743 deg
RA of node:       093.9785 deg
Eccentricity:    0.0008139
Arg of perigee:   286.4732 deg
Mean anomaly:     073.5573 deg
Mean motion:   14.79767916 rev/day
Decay rate:       3.31e-06 rev/day^2
Epoch rev:           39325
Checksum:              330

Satellite: AO-16
Catalog number: 20439
Epoch time:      10041.84651275
Element set:     819
Inclination:      098.3156 deg
RA of node:       004.8359 deg
Eccentricity:    0.0010911
Arg of perigee:   176.9453 deg
Mean anomaly:     183.1800 deg
Mean motion:   14.31847718 rev/day
Decay rate:        2.6e-07 rev/day^2
Epoch rev:            4730
Checksum:              293

Satellite: LO-19
Catalog number: 20442
Epoch time:      10041.79474623
Element set:     730
Inclination:      098.2768 deg
RA of node:       011.1014 deg
Eccentricity:    0.0012073
Arg of perigee:   172.7613 deg
Mean anomaly:     187.3744 deg
Mean motion:   14.32080700 rev/day
Decay rate:        1.6e-07 rev/day^2
Epoch rev:            4746
Checksum:              266

Satellite: AO-27
Catalog number: 22825
Epoch time:      10041.72462856
Element set:    0456
Inclination:      098.4703 deg
RA of node:       353.0435 deg
Eccentricity:    0.0007494
Arg of perigee:   282.6809 deg
Mean anomaly:     077.3519 deg
Mean motion:   14.29286416 rev/day
Decay rate:       1.14e-06 rev/day^2
Epoch rev:           85398
Checksum:              326

Satellite: IO-26
Catalog number: 22826
Epoch time:      10041.81264372
Element set:    0189
Inclination:      098.4641 deg
RA of node:       353.7802 deg
Eccentricity:    0.0008048
Arg of perigee:   278.2681 deg
Mean anomaly:     081.7599 deg
Mean motion:   14.29540373 rev/day
Decay rate:        3.9e-07 rev/day^2
Epoch rev:           85410
Checksum:              317

Satellite: GO-32
Catalog number: 25397
Epoch time:      10042.81637403
Element set:     110
Inclination:      098.3173 deg
RA of node:       057.1562 deg
Eccentricity:    0.0000294
Arg of perigee:   286.9358 deg
Mean anomaly:     073.1769 deg
Mean motion:   14.23170116 rev/day
Decay rate:      -1.82e-06 rev/day^2
Epoch rev:           60221
Checksum:              277

